GFSSE_925_rhum_258.txt.gz
RH
83 86 87 93 100 99 86 94 95 92 89 88 88 88 88 88 86 85 84 82 82 82 80 76 70 78 84 84 86 90 97 97 96 86 85 86 83 90 97 97 93 94 96
75 82 83 96 99 98 90 96 93 90 88 87 86 86 86 86 86 84 81 81 81 79 77 73 68 80 84 84 86 94 96 87 81 84 88 89 89 95 94 93 91 97 95
73 80 85 96 96 88 96 95 92 90 88 87 85 84 84 84 83 82 81 82 81 78 74 70 70 83 83 86 89 93 94 70 66 75 79 85 89 87 89 91 89 88 89
74 72 94 94 91 87 95 93 90 88 87 85 84 84 83 83 82 83 84 85 84 79 74 69 76 78 84 93 94 95 81 68 54 50 68 78 82 80 78 79 84 87 85
83 85 100 91 84 89 95 91 89 87 86 86 85 84 84 84 85 85 86 86 85 78 73 69 76 76 86 93 96 98 84 70 58 53 75 81 79 78 79 82 83 83 84
90 100 98 77 82 90 93 91 88 88 87 86 85 85 84 84 86 88 89 88 86 78 72 72 74 76 86 89 94 91 75 63 53 70 78 77 76 75 76 78 80 80 81
97 98 94 77 81 92 92 90 89 88 87 86 86 85 85 86 88 90 88 89 84 79 71 74 74 84 86 84 76 54 54 54 63 78 76 79 70 73 74 77 75 77 77
91 89 87 82 82 94 90 89 89 89 87 86 86 85 86 87 88 89 89 86 82 79 71 74 75 84 87 75 52 50 54 64 74 76 78 70 76 74 75 78 77 72 77
88 87 86 88 84 90 87 87 88 89 88 88 86 87 88 89 90 89 89 86 82 78 72 79 85 86 91 82 54 59 70 79 77 69 72 72 69 74 82 83 81 75 74
80 88 94 93 93 90 89 87 87 87 88 88 88 87 87 89 89 89 87 86 84 76 75 83 89 91 90 73 75 76 76 71 68 71 74 76 86 94 84 86 83 83 75
82 92 90 93 92 93 90 90 87 86 86 88 89 87 88 89 88 84 82 84 84 74 80 81 89 91 69 80 85 86 76 72 69 72 81 90 93 89 88 88 85 90 79
98 100 95 94 88 94 91 89 88 87 89 89 89 88 85 81 74 69 70 77 75 76 80 84 93 70 76 91 85 76 72 70 69 68 68 75 87 91 90 90 89 93 90
100 100 99 91 88 93 94 92 89 89 91 90 87 83 74 66 59 54 61 78 74 76 70 56 70 72 80 86 76 72 73 76 72 69 88 94 92 89 92 93 95 93 87
83 100 94 90 93 95 95 92 88 89 91 88 80 72 54 46 45 42 54 67 65 64 50 51 72 70 75 79 77 83 82 78 76 74 83 89 95 90 90 91 88 88 95
96 76 98 93 90 94 95 92 86 85 86 78 71 52 39 35 34 36 50 54 50 50 48 52 67 66 68 77 83 80 78 76 77 78 74 80 98 96 91 86 95 95 93
91 84 73 100 91 90 89 91 85 81 77 63 54 50 36 30 29 36 44 46 49 49 47 47 61 66 67 72 80 78 78 77 76 77 78 76 90 100 96 96 96 92 91
67 87 77 93 95 86 75 84 80 75 69 55 52 47 36 33 34 34 36 39 50 51 48 51 65 65 60 65 72 71 69 71 67 74 81 83 82 92 100 96 95 88 82
86 84 75 100 97 84 75 78 75 68 59 44 56 56 40 44 39 38 36 37 51 52 50 53 65 61 53 46 44 42 41 39 39 55 73 74 84 82 84 83 76 77 84
91 76 95 100 95 81 74 76 74 63 52 42 51 52 53 48 48 41 38 38 51 54 54 57 64 58 55 55 50 51 53 52 49 48 57 60 85 85 81 80 78 81 80
87 99 96 96 96 80 78 81 77 68 54 44 50 48 52 48 51 46 40 37 46 52 55 56 59 58 57 58 53 55 53 54 54 54 53 52 67 91 87 83 77 74 78
100 100 100 98 95 87 83 82 80 72 62 46 49 46 50 48 50 49 43 39 38 50 56 56 56 57 62 55 56 60 59 55 55 57 61 63 62 78 90 86 80 82 84
99 94 99 97 90 85 80 74 72 70 60 44 43 45 50 49 49 49 45 40 39 41 56 57 54 61 61 54 60 66 84 72 58 58 58 66 69 63 61 76 82 81 77
96 100 99 90 87 83 79 74 62 62 57 55 54 49 50 51 50 49 48 43 40 40 51 58 56 56 65 57 54 60 85 88 72 60 59 59 72 74 66 55 48 45 48
88 100 96 93 88 82 77 70 61 61 63 60 54 50 48 51 53 50 49 46 39 40 44 58 57 56 57 66 61 66 57 66 86 77 61 60 66 82 73 62 51 53 57
80 94 98 90 90 84 81 71 62 60 56 52 49 46 46 49 51 51 50 48 44 40 40 46 59 58 57 60 65 64 62 66 64 67 77 68 70 90 81 69 61 64 66
87 96 99 96 87 85 82 74 67 63 60 57 54 52 48 50 53 52 52 51 49 42 41 42 51 60 61 58 60 57 51 57 59 61 74 73 73 92 95 75 72 72 68

GFSSE_925_rhum_261.txt.gz
RH
88 89 87 90 94 94 87 94 98 96 94 92 91 90 89 89 89 88 86 84 83 80 75 74 81 81 81 82 88 95 96 98 96 85 83 79 82 91 97 97 92 91 95
83 89 87 87 88 95 86 95 95 93 92 90 88 88 87 86 85 84 83 83 81 79 72 73 82 80 82 86 95 95 97 91 82 81 82 84 87 88 91 91 87 85 95
82 92 91 83 92 92 89 95 94 91 89 87 86 85 85 85 82 81 82 82 80 76 71 76 82 82 82 84 83 94 89 72 76 75 77 81 81 86 88 90 88 90 87
89 98 91 93 97 89 90 95 91 89 88 86 85 84 84 83 82 82 82 81 78 75 72 82 83 85 85 86 89 93 75 56 65 71 78 77 73 79 80 82 85 85 86
92 98 97 99 94 85 91 93 90 88 87 86 86 85 84 82 82 83 84 84 78 74 78 81 85 90 95 92 97 90 63 53 54 72 79 79 73 79 81 82 81 86 77
87 82 96 99 90 83 92 92 89 87 88 87 86 85 83 83 84 87 88 86 79 74 79 79 86 93 96 97 97 78 65 52 60 72 80 77 74 76 78 80 80 80 84
91 91 94 90 86 86 93 89 85 85 85 86 85 85 85 86 88 89 90 86 78 76 78 79 89 90 92 91 79 63 56 62 75 78 78 76 74 76 77 79 79 78 79
90 89 98 89 88 86 92 89 86 85 86 87 85 86 87 88 89 90 89 85 77 77 78 85 90 88 88 77 53 54 64 71 76 80 76 74 78 83 78 75 77 78 76
88 95 94 90 90 86 88 87 87 87 87 86 86 88 89 90 90 90 88 84 77 77 78 86 89 88 88 75 56 67 75 70 68 76 74 69 74 79 83 74 77 76 83
88 93 92 86 91 86 90 83 85 85 84 85 87 86 89 89 90 91 87 85 78 80 85 87 92 93 76 56 74 79 72 68 73 71 79 84 85 81 83 81 77 87 81
86 88 89 85 91 83 80 81 84 82 84 86 85 85 88 92 90 87 85 85 76 84 92 92 95 94 70 73 76 72 69 71 81 87 96 91 86 85 86 91 80 76 79
99 98 92 83 90 85 82 88 87 84 87 88 87 88 84 84 82 80 80 77 74 85 86 94 93 71 78 83 80 73 68 69 71 72 86 82 90 88 86 93 87 83 87
98 100 100 92 90 86 86 84 88 86 89 90 90 86 80 76 73 72 76 73 82 80 96 89 71 81 87 81 74 71 69 66 71 89 93 89 89 91 93 93 89 90 93
98 100 98 98 91 85 85 86 89 89 91 92 91 84 75 70 64 63 72 74 79 70 77 73 75 87 86 74 70 73 72 70 75 87 99 96 89 94 92 88 92 96 95
90 97 99 100 89 85 82 91 90 91 92 90 89 83 67 53 52 56 70 72 70 56 62 73 75 84 82 79 79 80 75 73 74 79 94 94 94 90 86 92 97 92 90
86 80 92 92 100 92 82 85 89 88 91 90 83 76 59 42 39 46 61 64 62 51 58 71 69 78 85 85 82 78 77 75 76 73 77 97 93 95 90 96 91 89 88
78 83 72 97 71 100 91 84 84 84 88 87 75 61 47 40 34 38 52 50 50 50 56 70 69 73 83 84 81 79 78 75 73 77 79 92 99 99 98 95 90 89 86
81 90 85 65 88 77 97 90 87 79 84 82 67 53 41 36 31 39 46 48 52 51 53 68 69 72 77 79 75 73 73 70 70 72 82 83 91 93 92 81 84 86 90
78 86 95 74 99 72 94 92 88 80 81 75 59 56 39 35 35 35 38 44 52 52 54 64 68 60 66 55 48 48 46 49 62 71 71 84 84 81 77 75 78 76 83
70 86 93 93 95 89 100 98 92 81 80 69 53 56 40 40 40 40 38 39 52 54 58 67 63 54 48 51 59 59 58 56 54 54 52 82 86 82 81 81 78 72 84
91 95 89 93 99 100 100 100 93 84 78 74 56 59 58 48 50 46 40 40 52 55 58 66 61 55 60 55 55 67 63 62 63 67 63 79 92 84 82 79 75 78 77
80 78 96 98 100 100 99 88 84 85 80 71 55 59 56 58 52 52 44 39 50 57 60 66 62 71 69 54 60 67 62 66 62 65 72 70 80 92 88 85 83 82 82
92 94 100 98 99 99 96 88 78 82 76 73 57 54 54 52 52 54 49 41 39 52 59 62 62 62 69 57 54 63 69 63 64 63 65 77 72 67 80 85 84 78 63
97 100 100 100 100 95 90 81 73 74 72 69 58 46 48 54 54 53 52 46 40 41 57 59 58 55 56 64 64 62 55 66 63 63 66 66 84 73 62 53 50 51 53
96 100 100 100 100 98 89 78 70 68 62 54 54 43 47 49 52 52 51 50 44 41 41 57 58 56 54 58 62 66 66 67 60 59 62 69 84 90 71 57 56 58 61
93 99 99 100 100 93 88 80 70 64 61 57 55 54 53 50 51 53 53 51 49 43 41 45 58 58 56 55 61 55 55 63 66 60 64 70 70 99 86 68 66 69 67

GFSSE_925_rhum_264.txt.gz
RH
68 80 91 80 85 84 85 86 85 82 86 90 97 96 96 93 92 89 88 87 84 80 79 82 80 79 86 92 96 95 96 85 80 84 81 81 88 97 92 87 84 84 96
64 71 86 80 87 84 82 85 85 88 89 90 91 89 89 89 89 85 85 84 81 76 77 80 80 79 80 95 94 92 99 90 83 80 78 81 86 93 93 81 88 94 96
68 70 84 81 90 89 82 87 94 93 92 90 87 86 85 85 84 84 83 82 80 74 79 79 79 80 94 96 94 94 97 81 76 74 70 65 78 89 90 87 82 92 96
68 68 76 77 93 94 84 93 94 92 90 88 86 84 84 83 82 82 82 81 77 74 81 83 81 85 77 82 87 91 85 73 71 64 55 59 68 82 84 84 84 88 94
70 69 68 77 96 91 87 94 93 89 88 86 85 83 84 82 82 82 82 80 76 77 85 84 87 89 77 85 92 79 51 56 62 58 60 63 66 80 80 80 79 82 84
72 69 72 89 97 90 87 91 91 88 85 83 83 83 83 81 80 83 84 81 76 83 84 89 93 94 87 95 94 76 52 60 61 60 62 67 69 79 79 80 82 81 83
71 69 85 99 95 86 86 90 86 83 86 84 84 82 79 79 84 86 86 81 80 83 85 90 94 98 98 97 85 56 57 65 58 61 62 64 71 78 79 78 78 80 82
69 66 90 100 92 85 81 86 82 81 89 85 83 81 85 90 86 89 86 81 82 82 87 90 92 94 94 86 55 55 65 68 62 61 63 78 79 79 74 80 79 86 81
69 68 87 100 92 83 79 81 79 79 80 81 80 81 81 85 88 89 87 80 81 83 92 91 90 89 88 73 57 67 73 68 61 62 60 64 77 85 77 80 79 95 87
69 70 89 99 92 91 86 78 81 81 78 79 81 80 82 84 88 89 86 79 80 84 89 92 92 91 90 64 74 69 67 68 67 69 83 77 82 78 77 80 87 82 97
74 83 93 97 96 91 81 83 76 82 78 81 82 83 83 78 83 83 75 78 83 84 90 94 95 93 71 78 70 67 68 73 80 92 90 82 84 82 84 83 78 78 87
79 86 91 94 96 88 79 85 82 82 78 79 84 85 71 71 73 69 81 76 87 83 86 92 89 71 72 68 69 67 64 70 81 83 84 85 85 87 82 82 86 83 86
74 88 92 93 93 85 80 82 81 83 85 84 85 76 73 74 79 76 76 76 84 84 86 87 85 77 75 68 65 59 60 69 83 84 84 86 88 90 90 87 94 93 97
90 98 97 92 95 89 87 84 85 75 87 88 86 82 78 75 69 66 64 72 74 73 80 80 78 79 77 71 65 61 65 77 91 94 94 91 89 96 87 96 98 95 93
93 96 98 99 99 94 82 82 83 74 78 78 86 84 79 76 68 67 66 72 71 77 79 76 81 83 78 73 71 67 71 75 88 97 96 91 93 88 93 98 92 91 88
86 96 98 100 100 99 88 79 77 74 76 78 82 83 81 70 64 69 68 70 70 71 76 77 82 82 80 77 78 73 72 78 80 97 97 92 89 87 91 93 89 87 84
81 88 100 98 98 98 98 85 79 78 78 82 83 80 79 71 65 70 65 70 66 68 79 79 84 85 82 79 78 76 71 75 76 86 100 97 97 99 97 93 89 86 86
76 84 92 100 88 84 78 96 86 82 79 79 81 77 74 65 62 68 66 64 64 68 80 79 81 79 78 76 74 72 76 76 77 81 92 100 100 97 91 86 87 89 88
73 71 80 90 96 85 69 81 94 84 77 76 77 70 64 57 56 58 58 60 58 66 78 76 78 77 75 71 68 66 69 73 76 81 87 85 86 84 84 82 86 83 82
74 73 71 83 84 90 90 98 97 90 82 75 73 65 56 50 50 52 54 57 61 66 75 74 73 72 69 63 58 60 63 70 74 72 88 89 85 87 87 80 76 84 89
72 75 74 81 87 85 91 97 100 95 83 75 69 63 59 50 50 51 50 55 63 65 69 70 68 63 61 59 61 66 66 67 70 70 80 90 84 84 84 85 81 84 93
66 77 77 83 86 86 90 98 95 88 82 73 73 67 62 55 56 54 52 53 62 62 68 69 67 62 63 59 48 51 53 56 64 69 72 84 86 80 78 85 83 82 83
54 76 79 90 88 85 97 97 94 84 81 78 76 67 67 60 63 58 55 50 59 66 70 71 68 63 62 60 53 45 50 45 52 63 69 71 82 87 86 88 89 89 84
54 67 77 82 95 92 96 96 88 85 79 74 70 66 68 69 66 66 60 53 55 66 69 73 70 65 60 58 56 66 61 51 43 54 61 72 74 68 78 79 83 81 71
61 87 100 99 94 99 97 92 88 79 71 66 70 65 65 66 66 65 62 55 54 60 66 70 69 65 59 54 56 61 61 58 48 43 51 60 79 75 66 63 68 70 66
76 100 100 99 100 100 98 92 87 76 67 64 65 59 61 64 65 68 62 61 57 54 62 68 66 66 59 56 57 58 56 52 53 48 47 52 56 81 76 70 71 73 70

GFSSE_925_rhum_267.txt.gz
RH
56 80 85 76 77 74 74 73 80 85 85 80 85 89 93 97 98 97 94 90 86 86 89 85 80 88 94 95 96 96 93 87 88 83 85 85 92 94 86 82 81 89 96
53 79 85 77 76 78 76 76 76 78 82 82 89 91 94 93 91 88 87 84 80 79 80 79 78 83 95 94 92 93 86 80 80 75 71 80 85 94 86 86 90 96 96
52 74 89 78 80 79 74 77 79 78 82 90 92 91 90 88 86 86 84 82 77 79 79 79 78 95 96 95 90 93 78 75 64 66 66 68 85 90 88 95 93 97 96
53 73 81 79 81 83 81 81 80 82 90 86 87 86 85 85 84 84 83 81 76 80 79 80 90 90 93 93 94 95 70 58 59 61 55 61 69 84 84 88 91 95 96
55 61 69 78 83 91 84 77 86 90 89 86 82 79 84 82 82 83 82 79 76 82 85 82 85 74 73 87 86 77 58 58 55 53 58 64 68 79 81 81 84 90 94
56 58 71 73 91 92 82 85 89 88 84 80 80 80 83 77 78 82 82 80 79 82 86 88 81 76 77 92 85 60 49 58 58 57 62 68 73 78 82 84 83 86 92
57 57 74 72 96 91 82 84 87 86 79 81 80 81 77 78 79 81 84 80 86 81 82 82 94 89 95 94 74 45 58 57 54 56 60 68 79 78 75 80 82 82 86
57 57 74 78 99 90 86 81 80 77 78 78 80 77 78 77 80 84 84 83 86 88 82 93 99 99 96 91 57 54 61 57 54 58 74 70 75 73 83 82 82 80 82
56 58 76 98 99 89 85 77 78 74 79 78 77 77 76 77 84 85 84 84 84 87 86 93 95 94 90 73 59 61 63 57 56 59 62 76 78 78 75 93 88 84 80
55 56 87 100 100 89 82 76 77 74 71 78 80 80 76 80 87 90 82 83 84 81 87 93 92 92 84 60 62 62 63 58 63 68 70 81 76 76 83 86 98 91 84
69 57 86 90 98 93 86 80 75 74 73 72 84 83 79 78 83 86 74 81 84 83 89 94 95 86 59 67 63 67 67 74 83 80 79 83 78 79 86 75 91 85 96
73 68 84 93 96 90 83 81 81 75 76 77 86 77 71 68 71 67 78 81 80 80 88 94 78 59 67 66 65 62 68 79 79 84 82 83 92 78 82 86 88 95 98
66 71 82 94 91 86 80 79 82 75 75 79 75 78 61 62 70 76 79 87 86 83 88 91 69 72 59 59 61 56 60 74 75 70 87 83 89 83 87 94 96 98 93
60 67 77 87 91 83 82 80 78 78 78 77 72 68 63 65 68 65 67 77 79 78 79 80 69 68 63 59 55 55 67 82 76 79 91 89 86 88 97 98 95 92 88
70 73 82 89 92 83 80 78 76 73 80 79 77 65 65 66 63 57 56 67 67 67 71 69 67 68 64 59 56 60 73 90 91 86 91 94 88 90 97 93 90 87 84
68 84 92 96 89 86 82 79 75 64 72 75 76 68 68 65 61 60 60 66 64 70 68 69 69 69 67 63 62 65 72 82 92 88 91 91 88 88 96 91 86 86 83
63 74 90 99 92 93 86 80 74 68 65 64 65 66 69 64 59 63 62 65 66 70 67 69 72 72 68 68 66 64 69 74 88 96 92 93 92 95 93 90 89 87 81
59 67 92 95 94 94 92 81 78 69 65 64 66 69 71 64 59 63 61 65 62 70 71 74 76 74 74 72 69 66 70 71 79 100 98 97 98 99 91 87 88 89 88
59 63 85 93 98 98 93 87 84 78 70 69 68 69 71 64 58 60 60 61 59 72 73 73 75 75 74 70 68 68 69 75 80 90 100 99 93 89 87 89 86 86 85
59 65 68 91 96 99 97 77 74 89 80 70 69 69 66 59 54 54 54 55 58 68 72 73 74 73 72 68 62 63 69 72 73 87 91 92 87 87 87 76 76 84 90
61 67 66 72 84 92 98 99 97 87 92 72 69 66 61 52 50 50 51 53 55 62 68 69 71 72 68 58 62 63 64 65 68 78 90 88 88 84 81 82 81 91 87
55 67 67 66 70 77 79 86 95 96 90 78 71 65 55 48 47 47 48 52 55 56 62 64 66 64 60 60 55 53 60 57 61 62 76 88 87 85 83 80 78 81 86
39 61 67 67 69 72 80 80 90 96 95 85 78 65 57 47 47 45 46 50 56 58 62 65 64 61 62 57 50 44 54 51 55 61 65 75 84 86 84 81 78 78 81
31 49 65 68 70 74 84 84 89 94 92 84 78 67 62 51 50 50 49 49 56 59 64 66 65 61 60 59 52 54 56 46 51 58 62 65 73 80 80 79 81 84 80
28 41 59 71 75 81 84 87 88 84 87 80 74 68 66 54 57 59 56 51 54 62 66 69 67 64 62 60 59 61 60 53 42 44 58 61 69 65 77 78 80 77 68
38 58 78 84 86 88 93 94 90 85 83 80 74 68 66 66 64 66 62 54 52 62 66 71 69 67 61 59 57 58 57 56 50 44 49 56 66 70 65 62 67 69 67

GFSSE_925_rhum_273.txt.gz
RH
84 83 80 86 78 76 83 87 86 78 85 71 74 77 84 88 95 99 98 96 97 92 86 81 84 88 92 94 98 98 84 76 78 83 87 91 92 97 88 84 87 94 97
78 79 78 77 74 73 76 78 81 84 80 71 77 78 86 93 98 97 93 92 91 86 82 92 96 94 93 94 96 84 72 72 71 76 81 88 89 88 85 88 86 95 96
76 73 75 72 76 71 79 82 83 82 77 70 75 80 88 90 92 88 83 82 81 78 76 87 95 92 89 94 93 73 74 79 72 71 77 88 94 95 92 90 92 94 96
73 70 74 70 67 68 70 73 74 72 70 74 79 85 87 85 86 84 80 80 78 78 77 96 96 94 92 94 68 60 70 72 61 75 70 77 82 94 95 97 97 98 98
78 72 74 72 68 70 70 68 69 74 79 83 85 80 81 78 79 81 79 80 76 75 86 72 76 95 89 63 55 61 61 64 63 70 69 74 69 78 92 97 98 97 96
80 74 76 77 73 73 72 72 76 79 85 81 80 77 74 74 75 77 81 78 78 77 84 75 90 86 71 54 53 59 61 61 61 68 66 74 69 74 75 91 96 96 97
80 76 78 80 76 74 76 74 79 83 78 76 74 75 77 73 74 78 82 78 77 76 74 86 88 77 42 41 58 58 60 61 61 66 70 67 71 78 73 78 79 88 89
80 79 76 76 77 77 76 80 85 82 77 75 77 74 72 76 78 81 82 78 79 80 83 89 91 59 36 55 58 63 67 58 60 69 67 69 75 70 78 78 78 76 77
70 80 79 78 78 84 81 81 81 80 75 76 73 72 74 77 80 85 83 78 74 85 92 84 87 67 38 58 62 62 62 59 59 66 67 67 85 82 78 79 78 83 85
63 76 81 83 89 90 85 82 76 75 74 74 72 74 72 73 81 86 83 81 78 81 88 90 89 54 39 61 62 65 61 61 68 67 65 70 93 85 84 85 95 96 96
76 67 77 87 97 92 86 80 74 74 73 70 70 70 68 73 78 84 84 78 77 79 85 95 66 37 48 63 65 62 60 62 64 70 69 85 93 93 90 94 98 94 96
80 73 72 85 98 91 85 80 76 73 72 71 72 66 70 77 79 84 80 76 80 81 86 95 49 43 60 68 63 64 64 66 64 73 72 79 91 93 94 97 96 89 92
72 82 77 77 88 91 86 81 77 71 71 72 69 70 74 74 83 81 79 80 73 79 83 81 52 64 69 72 70 68 78 76 69 80 83 79 79 90 96 97 89 90 92
62 80 80 85 94 92 85 80 74 70 70 71 68 73 74 76 80 79 77 78 74 77 80 57 55 63 65 66 71 77 78 78 76 88 81 82 86 92 95 93 93 91 89
56 70 84 86 96 92 85 81 77 71 66 68 70 71 73 74 74 76 75 78 77 78 61 68 71 58 59 65 76 71 74 81 81 87 86 88 89 91 94 92 87 85 83
63 62 72 83 93 88 86 83 75 72 70 68 70 68 73 68 70 70 74 79 78 74 65 73 72 62 63 72 72 70 82 83 87 88 91 85 90 93 90 86 83 81 81
56 68 75 82 94 88 88 89 80 72 71 70 71 65 75 65 70 67 72 81 77 80 62 71 65 64 71 72 69 80 85 79 93 94 91 92 97 90 87 85 82 80 89
49 70 78 80 85 91 89 89 80 76 70 72 71 66 74 66 66 67 66 74 72 71 67 68 67 65 68 74 70 72 89 91 88 93 90 95 95 92 84 81 80 86 91
41 66 72 78 78 89 87 85 83 78 74 73 71 69 68 66 62 63 63 68 68 72 67 67 68 66 67 70 77 83 87 96 92 89 90 97 96 88 84 82 91 91 90
42 55 71 77 73 78 89 87 80 83 85 77 73 70 71 67 64 62 64 68 67 69 70 69 71 71 69 72 79 82 84 89 99 100 100 100 93 89 84 88 88 81 84
40 54 72 82 75 76 98 94 95 85 81 78 76 70 73 68 66 61 64 67 68 70 71 73 73 74 71 70 73 72 78 89 93 100 100 98 94 91 89 83 80 80 83
46 54 70 74 79 78 81 93 92 85 81 75 72 71 70 70 66 61 64 67 67 72 75 77 76 74 71 70 70 67 76 69 76 95 99 96 96 93 87 80 81 83 74
60 64 75 80 81 82 80 85 90 93 90 85 79 72 72 71 68 61 63 66 64 73 77 79 78 72 72 68 66 55 84 79 69 74 96 97 89 84 86 82 83 82 72
65 64 72 86 85 87 84 90 90 88 96 96 83 79 74 73 69 62 62 64 63 72 76 78 78 73 70 67 61 49 42 53 76 81 71 94 90 87 89 91 88 83 74
73 69 71 85 91 90 89 88 91 89 87 85 92 80 75 71 70 62 58 60 61 67 76 76 78 74 69 66 62 57 57 50 52 71 89 73 91 87 85 84 90 87 81
95 87 80 78 88 89 91 92 92 91 91 92 92 82 75 71 65 59 55 56 57 59 72 74 74 74 68 64 58 50 52 51 54 56 78 79 83 88 83 81 85 82 79

GFSSE_925_rhum_279.txt.gz
RH
89 84 81 91 90 94 82 95 95 92 92 96 95 94 93 95 96 94 93 95 89 86 84 84 82 87 87 86 89 94 98 98 90 87 86 88 91 95 88 88 92 94 97
86 86 78 84 87 87 82 91 86 84 85 86 94 92 93 91 91 92 91 97 91 87 89 90 88 82 85 94 96 96 86 82 82 84 85 85 86 89 93 88 89 96 96
86 85 80 82 84 84 86 88 84 85 75 70 73 76 86 93 94 97 96 94 93 91 97 92 85 82 88 93 92 92 88 78 80 85 87 90 91 93 90 89 90 96 97
81 83 84 84 84 87 89 85 83 79 73 71 74 78 84 93 94 93 92 88 89 95 99 95 89 93 96 93 93 85 68 74 78 84 91 94 93 95 96 96 97 97 98
85 81 80 79 82 86 87 84 81 78 73 72 76 84 87 92 87 85 84 83 80 80 82 87 96 94 87 87 88 67 69 62 66 72 86 89 93 99 99 97 98 99 96
88 82 77 78 83 83 83 83 80 76 72 74 81 82 87 86 84 82 82 77 65 88 70 73 91 95 91 81 72 74 71 67 64 70 67 86 92 97 98 98 98 97 92
88 78 75 76 77 78 78 76 75 73 76 79 80 76 78 80 81 81 76 69 86 78 69 79 93 95 87 74 72 69 64 61 73 72 67 67 88 95 96 95 92 85 91
81 74 76 74 73 72 75 78 70 75 80 83 75 72 72 72 79 75 71 74 87 66 67 88 86 87 77 67 68 67 65 63 63 69 64 73 76 80 89 90 87 93 96
75 75 78 74 71 73 75 71 74 79 84 78 73 73 70 74 76 72 74 74 73 63 66 87 83 87 68 66 65 66 61 63 68 66 67 70 73 69 73 83 84 94 95
80 81 77 74 76 74 75 73 76 81 81 75 74 74 74 72 77 74 71 73 83 73 65 63 81 76 65 63 63 64 66 65 67 77 68 72 70 79 81 84 93 96 94
91 83 80 77 80 76 77 74 80 80 76 77 76 73 72 74 78 72 73 76 88 85 71 62 60 67 66 66 60 63 66 65 64 66 82 80 75 81 86 96 94 92 92
99 96 79 79 80 79 80 83 81 76 76 75 76 74 71 73 79 73 71 90 92 84 71 61 53 68 73 69 65 64 64 67 65 70 85 84 87 94 97 98 96 94 94
99 100 84 78 78 77 85 87 82 76 75 75 75 73 70 73 82 79 74 72 79 82 77 55 52 69 73 70 64 63 58 65 68 79 94 92 92 98 97 98 94 96 94
98 90 75 76 76 81 81 86 79 77 74 72 72 70 71 74 82 80 76 70 70 77 84 55 57 71 72 68 63 60 63 67 68 74 92 90 91 96 95 96 85 87 89
84 82 78 73 73 77 80 83 78 78 76 70 71 68 68 75 82 83 76 70 73 80 77 59 71 75 71 67 63 63 64 67 77 83 79 84 89 93 93 93 88 83 89
72 82 79 71 71 71 77 81 77 76 72 70 70 68 69 75 74 81 76 69 73 78 72 67 75 70 64 64 68 65 62 74 74 78 86 88 90 90 88 86 85 90 85
64 74 91 70 69 72 75 85 81 78 74 72 72 70 70 72 71 78 80 74 73 75 64 74 71 63 63 70 65 71 61 80 76 81 87 92 90 85 82 80 79 86 93
56 69 88 82 71 73 78 84 83 79 74 73 73 71 71 72 69 73 81 75 74 69 70 78 67 67 80 78 65 65 72 84 82 82 87 91 90 84 82 82 78 98 87
48 60 73 92 78 76 83 90 87 82 76 73 72 73 73 74 76 73 76 76 73 63 77 78 69 71 87 85 72 82 83 86 87 93 85 97 91 86 78 76 85 87 66
41 53 67 90 84 81 81 95 93 86 85 75 72 75 74 75 78 75 74 74 74 67 78 77 72 86 84 89 95 98 99 99 97 98 95 95 92 84 72 81 91 84 67
50 56 73 96 95 93 100 100 100 94 89 81 83 72 73 75 78 75 72 72 76 75 75 76 80 86 93 93 98 99 100 100 100 100 100 98 95 84 74 78 92 80 71
53 54 87 90 98 99 98 96 98 96 92 86 85 78 73 73 75 74 71 67 76 81 87 78 77 89 90 91 86 85 83 90 100 100 100 100 95 85 76 82 91 82 79
67 71 73 88 93 96 89 99 95 99 99 98 91 84 77 74 75 74 71 66 74 77 84 79 75 76 82 84 77 70 86 91 84 97 100 100 98 91 82 94 91 85 78
94 78 86 95 94 97 98 98 98 99 97 97 93 85 83 81 75 73 69 67 69 77 76 79 76 71 70 80 76 67 65 71 92 92 98 100 100 100 96 94 87 84 80
97 97 85 92 97 99 98 92 99 99 93 89 87 87 90 83 78 72 73 65 65 74 74 76 77 74 72 75 74 65 56 68 71 86 94 97 98 99 98 93 85 83 84
91 99 100 100 100 98 96 94 94 94 91 93 94 92 88 84 82 74 72 73 67 72 74 74 76 76 74 73 72 70 57 53 64 72 89 90 98 98 92 97 90 87 86

GFSSE_925_rhum_282.txt.gz
RH
89 86 81 87 92 94 98 98 91 84 92 95 95 86 81 91 96 95 94 92 88 89 87 88 88 83 88 94 95 91 93 98 84 84 88 89 90 92 90 87 93 95 97
87 86 84 85 91 90 88 87 86 87 85 87 94 96 96 96 96 94 95 92 89 87 85 88 85 85 96 98 99 100 92 78 79 84 85 85 88 90 92 87 90 95 96
83 85 84 86 90 87 86 87 87 87 88 88 92 95 94 94 92 94 94 93 90 97 89 80 84 94 92 95 98 96 77 80 80 79 79 82 82 90 92 88 89 96 97
82 85 84 87 88 84 90 84 86 81 81 85 94 96 99 96 96 94 96 93 95 97 91 89 86 91 95 92 93 94 77 79 81 84 87 92 92 94 96 96 96 97 96
89 85 81 88 87 84 87 83 80 78 71 73 78 82 80 88 96 94 91 92 87 94 91 94 84 86 93 90 88 82 73 77 82 85 89 92 90 96 97 98 95 86 90
97 85 82 86 84 88 83 82 82 83 73 76 74 84 85 90 89 87 86 77 69 80 72 77 95 94 74 68 81 71 64 65 70 82 87 92 97 97 97 97 97 95 97
98 88 84 84 85 86 81 83 83 76 73 74 78 80 87 87 86 87 77 66 88 80 74 78 95 95 70 73 70 67 66 69 65 66 87 92 94 97 95 94 90 95 96
96 87 83 83 85 82 86 83 77 74 75 78 79 78 82 82 84 81 73 70 84 73 71 91 94 93 73 70 67 64 64 73 70 62 70 89 91 94 92 90 94 95 92
89 85 86 82 80 82 80 76 77 70 77 83 78 74 72 72 78 75 73 80 72 65 75 89 92 84 69 71 67 61 60 64 67 68 72 75 76 84 88 89 95 97 95
92 83 84 80 78 75 76 76 70 75 82 78 73 71 71 75 74 72 69 77 71 60 76 84 94 71 67 68 66 64 64 69 68 66 72 72 68 77 84 91 96 94 89
93 81 82 78 76 74 74 72 72 75 82 73 73 73 73 73 75 69 74 77 74 67 58 77 88 67 65 66 66 66 67 67 74 68 73 76 79 82 88 97 95 91 88
99 86 78 77 76 76 77 77 78 80 78 75 75 74 72 76 78 71 74 79 88 76 63 60 71 67 66 64 63 66 67 65 63 77 79 75 83 90 97 97 97 94 88
98 95 82 80 76 79 81 81 83 78 74 77 76 73 70 73 75 69 79 91 98 84 63 51 70 70 68 64 65 67 68 66 70 82 84 83 92 99 99 98 96 94 89
95 95 91 82 79 79 78 80 81 75 74 76 76 73 72 73 76 68 76 99 93 82 72 54 71 74 71 68 64 64 63 67 71 90 93 92 96 98 98 96 96 90 85
98 98 94 80 80 77 78 79 81 76 73 75 76 74 70 73 78 78 74 74 74 73 79 54 72 73 72 66 66 63 65 67 69 91 96 91 95 93 95 94 92 84 87
99 100 91 77 75 76 75 77 80 74 74 75 75 73 72 72 81 80 77 73 69 73 80 55 74 74 71 67 64 67 66 70 79 81 86 88 93 90 91 84 85 86 85
84 87 90 82 73 74 75 75 80 74 74 74 72 76 71 70 74 82 78 73 73 77 75 68 77 74 69 66 66 62 67 75 74 83 92 94 91 86 84 85 80 82 94
64 83 94 96 71 71 71 74 79 80 75 73 71 76 70 70 71 81 77 74 74 75 70 77 76 69 67 70 67 66 64 81 80 86 93 94 88 81 80 82 78 90 88
56 68 87 96 75 67 70 72 79 82 76 74 72 75 71 71 69 75 79 78 76 76 68 78 73 68 69 79 76 74 75 88 86 87 91 92 85 83 77 80 80 86 77
49 60 71 84 91 76 70 80 88 91 89 81 75 74 72 73 71 67 80 81 77 76 72 81 70 79 83 80 70 85 88 92 94 96 91 93 89 86 77 78 90 72 68
56 60 83 93 100 94 96 100 100 96 93 86 78 75 73 73 75 74 73 82 78 74 72 82 79 88 100 93 80 100 100 99 99 100 100 96 97 87 80 78 88 75 79
60 61 81 100 100 100 100 100 99 97 94 86 80 75 76 76 78 79 76 78 79 76 74 83 78 98 99 100 96 90 92 96 100 100 100 100 97 93 83 81 90 82 85
89 88 94 100 100 99 100 100 100 100 100 100 95 87 86 79 77 77 78 76 78 76 74 79 80 83 90 98 90 78 86 85 89 98 100 98 100 95 90 84 92 86 82
94 93 99 99 100 99 99 100 100 99 98 98 98 89 87 85 78 77 79 75 75 76 77 80 77 84 76 78 84 72 67 71 92 94 97 100 99 96 93 93 97 90 81
91 98 98 100 100 96 100 100 100 100 99 96 98 98 95 81 79 78 78 76 74 74 77 82 84 79 82 73 73 70 67 74 79 88 93 93 100 99 99 98 100 95 87
90 95 98 97 96 98 100 100 100 99 97 99 99 100 94 86 84 84 81 77 74 75 76 77 81 81 78 76 73 71 65 64 71 78 90 92 94 98 100 95 100 94 91

GFSSE_925_rhum_288.txt.gz
RH
67 77 84 75 73 74 68 68 69 69 72 71 73 76 79 88 90 82 86 92 88 88 90 94 96 95 97 97 98 98 96 99 89 87 86 86 89 92 87 85 82 88 98
65 76 83 76 77 75 72 70 70 68 72 72 75 78 79 94 94 95 96 97 95 91 86 91 94 90 91 93 97 99 92 83 82 83 80 87 90 86 90 84 89 96 98
65 73 88 80 75 75 78 74 73 71 74 74 76 78 79 95 96 96 87 88 86 87 82 93 96 95 90 84 93 97 78 77 80 83 80 77 90 92 86 88 90 94 96
65 70 78 85 80 75 76 79 78 77 77 78 84 87 86 93 96 92 92 94 87 83 96 96 96 96 85 88 97 82 76 77 76 73 62 69 82 93 96 96 97 98 97
69 70 75 86 83 84 82 73 80 82 82 84 89 91 91 91 94 97 96 90 82 80 91 96 78 78 87 86 83 80 80 82 80 70 69 75 84 96 97 97 98 97 94
74 69 85 87 85 85 83 83 81 84 88 91 91 91 89 87 88 93 91 90 84 81 89 96 95 74 79 77 74 79 83 85 80 79 78 86 91 95 97 97 97 96 93
76 71 95 88 87 84 85 85 85 85 89 90 89 88 91 96 96 90 85 88 84 76 86 95 82 64 72 64 66 73 80 82 71 77 76 87 97 96 97 98 97 94 92
74 76 88 92 88 84 85 86 84 85 83 85 84 80 78 92 95 86 76 80 84 90 90 89 80 83 70 66 62 62 70 80 72 78 84 90 92 97 96 97 95 89 84
79 81 81 93 94 86 86 83 82 78 74 70 72 79 77 87 91 81 69 84 82 86 84 72 87 74 67 62 61 64 62 67 69 76 83 87 90 95 96 96 91 85 90
89 80 79 86 93 91 95 85 81 74 74 77 77 77 82 88 85 74 69 87 77 72 76 76 69 67 64 62 59 67 68 56 60 72 76 85 91 97 95 94 92 94 92
92 85 83 86 87 88 87 92 80 76 77 74 78 76 74 70 77 80 79 82 73 68 67 73 68 70 66 63 63 63 61 56 56 60 63 80 90 97 92 94 93 91 88
94 91 88 84 83 85 82 88 82 82 78 74 71 72 65 66 66 66 90 82 72 64 67 75 70 68 66 67 71 67 60 59 58 58 65 73 80 92 91 94 92 88 83
91 91 89 86 83 87 88 86 85 81 73 69 66 67 72 71 73 69 75 84 77 68 77 78 73 69 62 63 66 61 58 59 59 59 69 70 94 94 95 94 91 88 82
95 88 89 96 98 95 92 89 85 79 74 71 67 70 69 66 73 63 74 85 78 65 67 70 68 69 64 62 60 58 56 65 60 60 70 82 92 98 93 94 90 84 85
94 92 87 98 94 87 84 82 80 72 67 70 70 69 67 67 70 66 80 95 92 91 74 66 68 67 64 61 60 61 68 77 78 80 89 90 99 94 90 93 90 83 97
90 92 88 96 96 95 92 79 72 69 67 72 72 70 69 66 64 75 88 99 86 77 72 65 66 65 63 62 63 64 67 81 85 95 97 100 95 86 89 91 87 86 98
84 86 93 96 100 96 93 90 83 73 69 74 76 73 72 69 66 72 88 89 87 73 75 66 73 69 66 63 64 66 68 73 86 95 100 97 91 87 91 88 85 91 96
88 88 88 91 98 100 98 97 92 86 75 69 77 76 76 75 72 72 89 94 90 84 76 71 76 76 72 69 71 75 74 73 79 86 94 96 92 84 87 84 85 90 94
85 90 90 98 99 100 100 100 96 91 83 80 80 80 78 77 75 70 71 82 89 85 80 75 76 80 79 74 88 93 82 80 75 87 86 90 88 82 80 81 83 88 91
68 79 80 100 100 98 99 100 100 96 93 91 87 76 81 79 79 73 71 75 83 85 80 79 80 84 80 80 93 84 84 89 92 77 79 86 82 86 79 77 86 95 89
56 70 75 83 97 99 100 100 100 100 98 96 90 89 78 79 82 81 77 78 85 83 80 70 80 88 86 87 90 97 93 100 98 100 99 99 93 90 84 80 81 77 84
50 50 61 72 76 99 100 100 99 99 100 97 92 87 85 81 82 81 81 81 83 81 80 71 86 85 84 86 63 69 73 84 92 87 94 99 99 98 87 82 90 83 85
68 77 58 58 74 89 100 96 88 98 100 100 100 97 89 85 84 83 81 82 84 82 82 78 81 86 85 90 72 57 66 62 55 76 92 100 99 99 93 92 83 91 87
72 82 89 90 72 82 98 96 93 97 98 99 100 97 93 83 83 84 81 80 83 84 82 78 77 78 77 82 84 67 67 55 58 65 77 94 100 99 99 92 82 94 89
80 85 93 96 95 92 98 100 93 90 86 86 95 99 100 94 87 76 75 83 84 85 81 79 78 79 73 75 73 76 70 68 69 56 55 72 96 100 99 98 92 93 91
84 88 92 98 99 99 100 100 99 90 88 86 96 98 100 100 99 91 84 80 88 91 87 85 79 80 76 73 76 75 67 63 61 60 56 58 61 74 94 99 97 94 90

GFSSE_925_rhum_294.txt.gz
RH
77 68 82 75 71 72 79 75 77 86 91 93 93 74 75 70 78 84 85 81 85 91 95 95 95 95 94 93 93 96 95 78 82 76 88 89 87 89 94 87 92 97 95
73 66 81 76 70 69 77 75 76 78 88 87 92 87 87 85 82 94 95 95 94 96 96 96 97 97 92 90 93 93 80 75 80 82 86 88 89 85 86 87 93 95 98
71 75 81 77 72 69 75 74 73 76 78 83 87 87 93 94 95 95 96 89 92 94 94 96 97 97 94 98 98 74 73 80 80 83 84 84 86 83 84 89 88 93 93
73 78 92 81 74 69 71 73 72 73 75 80 82 83 86 94 93 95 94 86 90 95 96 96 94 92 94 93 73 69 77 82 80 81 77 87 97 96 97 96 96 92 93
71 75 92 83 78 72 71 72 71 71 73 76 81 82 84 87 95 95 87 82 86 85 89 95 86 86 90 92 65 61 73 76 76 77 75 81 94 96 97 97 94 92 92
68 73 80 83 83 75 73 72 72 74 76 77 80 82 82 84 87 87 88 81 84 84 91 96 78 72 74 73 64 64 77 76 75 71 81 82 94 97 99 96 95 93 91
65 69 76 73 85 78 75 76 77 77 78 81 82 84 85 86 84 91 86 77 82 80 79 79 72 66 67 70 72 82 78 78 63 74 76 85 94 98 96 94 92 92 84
62 69 77 65 84 75 79 80 81 82 83 85 87 86 87 85 86 87 84 80 80 80 86 84 71 57 57 62 66 75 81 85 77 77 82 89 93 96 92 92 91 90 81
63 72 79 77 81 82 80 82 85 85 88 89 88 88 88 87 88 86 85 81 75 80 78 79 73 58 51 53 54 66 72 82 79 78 84 92 94 92 91 91 95 86 85
62 77 74 84 89 91 89 86 87 89 88 88 87 87 88 87 83 87 87 78 75 70 68 72 73 64 53 49 49 49 65 80 78 76 80 91 93 89 93 94 90 89 87
70 71 76 82 91 92 89 92 87 88 87 83 82 81 80 80 84 80 77 76 76 75 66 72 70 62 53 51 45 46 59 54 66 74 74 84 95 91 94 94 91 88 90
76 76 72 84 84 92 96 92 92 88 84 76 73 72 73 80 82 78 80 76 76 71 64 66 70 63 54 54 45 43 49 50 58 69 69 78 94 94 96 94 91 88 96
75 75 76 78 78 87 92 93 94 84 75 77 79 75 68 75 72 80 76 83 77 74 68 66 67 62 64 58 56 57 51 49 51 67 70 74 85 87 95 91 89 92 92
79 75 77 76 79 80 87 89 89 83 78 77 74 69 64 63 72 74 77 82 73 78 72 68 66 59 64 59 56 54 52 51 51 64 65 66 84 90 93 90 90 94 94
82 78 77 76 75 78 85 89 86 83 79 74 68 67 62 60 65 75 67 76 66 71 70 73 60 61 58 56 55 52 51 54 55 63 64 73 89 92 92 90 86 95 97
70 74 75 78 80 81 86 86 85 81 77 68 65 61 62 61 67 62 64 61 66 60 62 64 63 59 55 54 52 53 56 57 64 76 62 89 90 88 87 86 87 96 98
68 70 73 74 81 83 87 85 83 80 75 66 65 63 63 64 65 60 63 68 70 61 57 57 57 56 55 54 54 58 60 72 83 82 69 94 92 87 81 88 89 93 99
59 71 74 76 77 84 86 90 88 82 74 67 66 66 65 62 63 66 64 77 81 68 61 54 55 56 55 54 56 57 60 72 82 85 88 93 93 88 84 87 90 97 98
51 69 70 77 80 84 93 95 89 85 80 69 67 67 66 63 63 66 65 85 80 74 65 59 57 58 56 56 55 59 59 70 78 97 100 93 92 87 89 82 90 91 95
47 65 71 71 82 85 96 97 92 88 83 73 71 70 67 64 64 67 70 87 81 76 67 62 59 61 60 59 60 63 65 68 82 83 94 92 82 85 84 84 81 92 92
46 64 85 76 82 85 91 97 100 92 85 79 76 72 70 68 65 70 78 81 76 77 68 65 63 63 60 63 69 80 84 79 78 82 86 92 83 82 83 77 82 86 88
60 62 64 63 77 84 84 98 100 98 95 85 80 78 73 71 68 68 84 83 87 82 74 72 64 66 72 70 77 76 93 88 83 83 91 92 90 82 79 81 83 84 88
72 76 79 80 79 78 98 96 99 100 100 100 95 85 80 76 72 69 71 83 85 82 79 76 73 67 76 82 68 65 89 90 87 88 92 91 90 90 80 76 82 86 83
76 80 83 86 86 86 86 99 95 93 89 95 97 93 83 82 77 73 70 69 78 79 79 75 72 76 77 85 73 64 65 63 83 98 91 95 97 93 90 82 80 88 85
78 80 84 87 84 90 89 99 95 96 86 90 99 100 94 92 88 85 76 71 75 78 77 75 70 77 77 86 78 77 67 60 60 74 91 100 99 92 97 90 85 86 86
82 83 86 88 92 89 93 95 100 92 87 86 93 100 99 100 94 91 91 80 76 79 78 78 68 75 79 82 79 72 66 62 64 63 77 84 96 96 87 93 88 91 86